Location: Balaclava NSW 2575, Australia
(34.4510°S, 150.4953°E)
Time: 05:09:09
(UTC+10:00)

A-11 Canister half - Visible Passes

Search period start: 19 June 2021 00:00
Search period end: 29 June 2021 00:00
Orbit: 1527 x 1681 km, 47.3° (Epoch: 18 June)

Date Brightness Start Highest point End Pass type
(mag) Time Alt. Az. Time Alt. Az. Time Alt. Az.
19 Jun 9.2 17:09:01 10° SW 17:19:18 89° SE 17:29:15 10° NE visible
19 Jun 10.7 19:15:28 10° WSW 19:23:32 28° NW 19:31:26 10° N visible
20 Jun 10.7 18:53:37 10° WSW 19:01:55 30° NW 19:10:04 10° N visible
21 Jun 10.7 18:31:46 10° WSW 18:40:19 32° NW 18:48:39 10° N visible
22 Jun 10.7 18:09:57 10° WSW 18:18:42 35° NW 18:27:14 10° N visible
23 Jun 10.7 17:48:08 10° WSW 17:57:04 37° NW 18:05:48 10° NNE visible
24 Jun 10.7 17:26:20 10° WSW 17:35:26 39° NW 17:44:20 10° NNE visible
25 Jun 11.5 06:37:53 10° N 06:45:01 23° NE 06:52:19 10° ESE visible
25 Jun 10.7 17:04:33 10° WSW 17:13:48 41° NW 17:22:51 10° NNE visible
26 Jun 11.5 06:16:37 10° N 06:23:26 22° NE 06:30:23 10° E visible
27 Jun 11.5 05:55:23 10° NNE 06:01:50 20° ENE 06:08:23 10° E visible
28 Jun 11.5 05:34:12 10° NNE 05:40:14 18° ENE 05:46:23 10° E visible
